Location: Sungai Igah
(2.7333°N, 114.2500°E)
Time: 18:37:39
(UTC+00:00)

Mugunghwa Rocket - Pass Details

Date: 14 June 2021
Orbit: 936 x 1372 km, 26.7° (Epoch: 24 July)

Event Time Altitude Azimuth Distance (km) Brightness Sun altitude
Exits shadow 19:55:11 66° 355° (N) 1,128 4.2 -32.3°
Drops below altitude 10° 20:02:01 10° 55° (NE) 2,994 7.4 -30.8°
Sets 20:04:59 0° 57° (ENE) 4,024 8.4 -30.2°
